QPF
0.09 0.11 0.10 0.07 0.05 0.05 0.05 0.03 0.04 0.04 0.02 0.01 0.01 0.01 0.00 0.00 0.01 0.01 0.01 0.02 0.02 0.02 0.02 0.02 0.03 0.04 0.04 0.04 0.04 0.04 0.06 0.06 0.08 0.08 0.08 0.08 0.08 0.10 0.10 0.09 0.09 0.09 0.09 0.06
0.08 0.07 0.05 0.03 0.03 0.04 0.04 0.04 0.04 0.04 0.03 0.01 0.01 0.01 0.00 0.00 0.00 0.00 0.01 0.02 0.02 0.03 0.02 0.02 0.03 0.04 0.04 0.03 0.04 0.04 0.04 0.05 0.05 0.06 0.06 0.06 0.05 0.06 0.08 0.09 0.08 0.07 0.06 0.05
0.04 0.02 0.03 0.04 0.04 0.06 0.05 0.05 0.05 0.05 0.04 0.02 0.01 0.02 0.01 0.01 0.00 0.01 0.01 0.02 0.03 0.02 0.03 0.03 0.03 0.03 0.03 0.04 0.04 0.04 0.04 0.05 0.05 0.07 0.08 0.07 0.07 0.06 0.06 0.06 0.06 0.05 0.05 0.05
0.02 0.01 0.03 0.05 0.04 0.05 0.06 0.04 0.04 0.04 0.04 0.05 0.03 0.04 0.02 0.01 0.00 0.00 0.01 0.01 0.02 0.02 0.02 0.02 0.03 0.03 0.03 0.03 0.03 0.04 0.06 0.06 0.07 0.07 0.08 0.07 0.06 0.04 0.04 0.04 0.04 0.03 0.04 0.05
0.03 0.02 0.03 0.06 0.04 0.03 0.04 0.04 0.04 0.04 0.04 0.05 0.04 0.04 0.02 0.01 0.01 0.00 0.00 0.00 0.01 0.01 0.01 0.01 0.02 0.03 0.03 0.03 0.04 0.04 0.04 0.05 0.06 0.06 0.07 0.08 0.07 0.05 0.05 0.04 0.04 0.03 0.03 0.03
0.03 0.02 0.02 0.04 0.03 0.03 0.04 0.05 0.07 0.06 0.06 0.07 0.04 0.03 0.02 0.01 0.00 0.00 0.00 0.00 0.01 0.01 0.01 0.00 0.01 0.01 0.02 0.02 0.03 0.03 0.03 0.03 0.04 0.05 0.06 0.07 0.06 0.05 0.04 0.03 0.03 0.03 0.03 0.02
0.05 0.04 0.03 0.03 0.05 0.06 0.07 0.08 0.15 0.18 0.16 0.10 0.03 0.02 0.02 0.01 0.00 0.00 0.00 0.00 0.00 0.01 0.01 0.00 0.00 0.00 0.00 0.01 0.02 0.03 0.03 0.03 0.03 0.03 0.04 0.05 0.06 0.06 0.04 0.04 0.04 0.03 0.03 0.03
0.05 0.06 0.05 0.04 0.07 0.09 0.08 0.05 0.07 0.09 0.09 0.05 0.03 0.02 0.02 0.01 0.01 0.00 0.00 0.00 0.00 0.01 0.01 0.00 0.00 0.00 0.00 0.00 0.01 0.02 0.03 0.04 0.03 0.03 0.03 0.03 0.05 0.06 0.05 0.04 0.04 0.04 0.03 0.03
0.03 0.04 0.04 0.04 0.06 0.08 0.08 0.05 0.02 0.02 0.02 0.02 0.03 0.02 0.01 0.01 0.01 0.01 0.01 0.00 0.00 0.00 0.00 0.01 0.01 0.00 0.00 0.00 0.00 0.01 0.02 0.03 0.05 0.05 0.04 0.03 0.03 0.04 0.04 0.04 0.04 0.05 0.04 0.03
0.04 0.03 0.04 0.05 0.06 0.09 0.07 0.04 0.03 0.03 0.03 0.02 0.02 0.01 0.01 0.00 0.00 0.01 0.01 0.01 0.01 0.00 0.00 0.01 0.01 0.00 0.00 0.00 0.00 0.00 0.01 0.03 0.04 0.06 0.06 0.05 0.04 0.04 0.04 0.04 0.03 0.03 0.03 0.04
0.04 0.03 0.03 0.05 0.08 0.09 0.07 0.05 0.04 0.04 0.03 0.02 0.01 0.01 0.01 0.01 0.00 0.00 0.01 0.01 0.01 0.01 0.01 0.00 0.00 0.01 0.00 0.00 0.00 0.00 0.01 0.02 0.03 0.05 0.07 0.05 0.04 0.04 0.03 0.03 0.03 0.03 0.03 0.03
0.04 0.03 0.03 0.04 0.05 0.04 0.05 0.05 0.04 0.04 0.03 0.02 0.02 0.01 0.01 0.00 0.00 0.01 0.01 0.01 0.01 0.01 0.01 0.01 0.01 0.01 0.00 0.00 0.00 0.01 0.01 0.01 0.02 0.03 0.05 0.05 0.05 0.04 0.03 0.04 0.03 0.02 0.02 0.02
0.05 0.04 0.03 0.04 0.04 0.03 0.04 0.05 0.05 0.04 0.03 0.03 0.02 0.02 0.01 0.00 0.00 0.00 0.01 0.01 0.01 0.01 0.01 0.01 0.01 0.01 0.01 0.00 0.00 0.00 0.01 0.01 0.01 0.02 0.03 0.04 0.05 0.04 0.03 0.03 0.03 0.02 0.02 0.02
0.03 0.03 0.02 0.02 0.03 0.03 0.04 0.05 0.05 0.05 0.07 0.05 0.02 0.02 0.02 0.01 0.01 0.01 0.01 0.01 0.01 0.01 0.00 0.00 0.01 0.01 0.01 0.01 0.01 0.01 0.01 0.01 0.01 0.01 0.02 0.03 0.03 0.03 0.03 0.03 0.02 0.01 0.01 0.01
0.02 0.02 0.01 0.01 0.01 0.01 0.03 0.03 0.04 0.03 0.03 0.03 0.02 0.01 0.01 0.01 0.01 0.01 0.01 0.01 0.01 0.01 0.01 0.00 0.00 0.01 0.01 0.01 0.01 0.01 0.01 0.01 0.01 0.01 0.01 0.03 0.03 0.02 0.02 0.02 0.01 0.01 0.01 0.01
0.02 0.02 0.01 0.01 0.01 0.01 0.02 0.02 0.03 0.03 0.02 0.02 0.01 0.02 0.01 0.01 0.01 0.01 0.01 0.01 0.01 0.02 0.01 0.01 0.01 0.00 0.00 0.00 0.00 0.01 0.01 0.01 0.02 0.02 0.01 0.02 0.02 0.02 0.01 0.01 0.01 0.01 0.01 0.01
0.02 0.02 0.02 0.02 0.01 0.01 0.02 0.02 0.03 0.03 0.03 0.02 0.02 0.02 0.01 0.01 0.01 0.01 0.01 0.01 0.01 0.02 0.02 0.02 0.01 0.00 0.00 0.00 0.00 0.00 0.01 0.01 0.01 0.01 0.01 0.02 0.02 0.02 0.01 0.01 0.00 0.00 0.01 0.01
0.01 0.01 0.02 0.02 0.02 0.02 0.02 0.02 0.02 0.02 0.03 0.02 0.02 0.02 0.02 0.02 0.02 0.02 0.01 0.01 0.01 0.02 0.02 0.02 0.01 0.00 0.00 0.00 0.00 0.00 0.01 0.01 0.01 0.01 0.01 0.02 0.02 0.02 0.01 0.01 0.01 0.00 0.01 0.01
0.01 0.01 0.01 0.01 0.01 0.01 0.01 0.01 0.02 0.02 0.02 0.03 0.02 0.02 0.02 0.02 0.02 0.02 0.01 0.01 0.01 0.02 0.02 0.02 0.01 0.01 0.00 0.00 0.00 0.00 0.01 0.01 0.01 0.00 0.01 0.01 0.01 0.01 0.01 0.01 0.01 0.00 0.00 0.00
0.01 0.01 0.01 0.01 0.01 0.01 0.01 0.01 0.01 0.02 0.02 0.02 0.02 0.02 0.02 0.03 0.03 0.02 0.02 0.02 0.02 0.02 0.02 0.01 0.01 0.01 0.00 0.00 0.00 0.00 0.00 0.00 0.00 0.00 0.00 0.01 0.02 0.01 0.01 0.01 0.01 0.01 0.00 0.00
0.02 0.03 0.02 0.01 0.01 0.00 0.01 0.01 0.01 0.02 0.02 0.01 0.02 0.03 0.03 0.03 0.03 0.03 0.02 0.02 0.02 0.02 0.02 0.02 0.01 0.01 0.01 0.00 0.00 0.00 0.00 0.00 0.00 0.00 0.00 0.01 0.01 0.01 0.01 0.01 0.01 0.01 0.00 0.00
0.02 0.02 0.01 0.01 0.01 0.01 0.00 0.01 0.01 0.02 0.01 0.02 0.02 0.02 0.02 0.02 0.03 0.03 0.02 0.02 0.02 0.02 0.02 0.02 0.01 0.01 0.01 0.01 0.00 0.00 0.00 0.00 0.01 0.00 0.00 0.01 0.00 0.00 0.00 0.01 0.01 0.01 0.01 0.01
0.01 0.02 0.01 0.01 0.01 0.01 0.01 0.02 0.02 0.02 0.02 0.02 0.02 0.02 0.02 0.03 0.02 0.02 0.02 0.02 0.02 0.02 0.02 0.02 0.02 0.01 0.01 0.01 0.01 0.01 0.01 0.01 0.01 0.01 0.00 0.01 0.00 0.00 0.00 0.00 0.01 0.01 0.01 0.01
0.01 0.01 0.01 0.01 0.01 0.01 0.02 0.02 0.02 0.02 0.02 0.02 0.02 0.02 0.03 0.03 0.03 0.03 0.03 0.02 0.01 0.01 0.01 0.02 0.02 0.01 0.01 0.02 0.01 0.01 0.01 0.01 0.01 0.01 0.01 0.01 0.01 0.00 0.00 0.00 0.00 0.00 0.00 0.00
0.01 0.01 0.01 0.01 0.01 0.01 0.01 0.01 0.02 0.02 0.01 0.01 0.02 0.02 0.02 0.02 0.02 0.02 0.02 0.01 0.01 0.01 0.01 0.01 0.02 0.01 0.01 0.01 0.01 0.01 0.01 0.01 0.01 0.01 0.01 0.01 0.01 0.01 0.00 0.00 0.00 0.00 0.00 0.00
0.01 0.01 0.01 0.01 0.02 0.02 0.01 0.01 0.01 0.02 0.02 0.02 0.02 0.02 0.02 0.02 0.02 0.02 0.02 0.01 0.01 0.01 0.01 0.01 0.01 0.01 0.01 0.01 0.01 0.01 0.01 0.01 0.01 0.01 0.01 0.01 0.01 0.01 0.00 0.00 0.00 0.00 0.00 0.00
MSLP
1015.08 1015.06 1015.06 1015.06 1015.04 1014.97 1014.83 1014.59 1014.22 1013.70 1013.02 1012.18 1011.21 1010.14 1009.04 1007.98 1007.01 1006.19 1005.55 1005.10 1004.82 1004.67 1004.62 1004.63 1004.66 1004.70 1004.78 1004.92 1005.16 1005.53 1006.07 1006.76 1007.60 1008.53 1009.52 1010.49 1011.40 1012.22 1012.94 1013.57 1014.12 1014.65 1015.17 1015.73
1014.75 1014.56 1014.40 1014.30 1014.25 1014.22 1014.19 1014.12 1013.95 1013.62 1013.09 1012.35 1011.41 1010.30 1009.10 1007.89 1006.77 1005.80 1005.05 1004.53 1004.22 1004.10 1004.11 1004.19 1004.29 1004.41 1004.54 1004.71 1004.95 1005.32 1005.84 1006.52 1007.34 1008.27 1009.24 1010.22 1011.14 1011.98 1012.71 1013.35 1013.93 1014.47 1015.01 1015.57
1014.55 1014.16 1013.83 1013.59 1013.47 1013.46 1013.52 1013.59 1013.58 1013.42 1013.03 1012.37 1011.44 1010.28 1008.97 1007.61 1006.31 1005.19 1004.30 1003.69 1003.35 1003.24 1003.31 1003.47 1003.67 1003.89 1004.10 1004.34 1004.64 1005.03 1005.56 1006.23 1007.04 1007.95 1008.91 1009.88 1010.80 1011.64 1012.38 1013.04 1013.63 1014.19 1014.75 1015.32
1014.64 1014.01 1013.48 1013.09 1012.88 1012.84 1012.94 1013.10 1013.22 1013.18 1012.88 1012.28 1011.34 1010.12 1008.69 1007.17 1005.71 1004.42 1003.40 1002.70 1002.31 1002.21 1002.32 1002.56 1002.87 1003.19 1003.52 1003.85 1004.22 1004.66 1005.22 1005.90 1006.71 1007.61 1008.56 1009.51 1010.42 1011.26 1012.00 1012.67 1013.28 1013.85 1014.42 1015.02
1015.08 1014.22 1013.48 1012.91 1012.57 1012.46 1012.54 1012.73 1012.90 1012.92 1012.67 1012.08 1011.12 1009.83 1008.30 1006.65 1005.05 1003.63 1002.50 1001.71 1001.28 1001.16 1001.30 1001.61 1002.01 1002.43 1002.86 1003.28 1003.74 1004.25 1004.85 1005.56 1006.37 1007.26 1008.20 1009.14 1010.04 1010.87 1011.61 1012.29 1012.91 1013.50 1014.09 1014.70
1015.88 1014.81 1013.84 1013.08 1012.58 1012.35 1012.35 1012.48 1012.63 1012.63 1012.38 1011.77 1010.78 1009.44 1007.84 1006.13 1004.45 1002.95 1001.74 1000.90 1000.43 1000.30 1000.45 1000.78 1001.23 1001.72 1002.21 1002.71 1003.24 1003.81 1004.46 1005.20 1006.03 1006.93 1007.86 1008.79 1009.68 1010.51 1011.25 1011.94 1012.57 1013.18 1013.79 1014.42
1016.97 1015.70 1014.53 1013.56 1012.87 1012.47 1012.32 1012.33 1012.37 1012.29 1011.97 1011.32 1010.30 1008.95 1007.35 1005.64 1003.96 1002.46 1001.26 1000.40 999.92 999.77 999.90 1000.23 1000.67 1001.16 1001.68 1002.21 1002.77 1003.38 1004.06 1004.84 1005.69 1006.60 1007.54 1008.47 1009.36 1010.19 1010.94 1011.63 1012.28 1012.91 1013.54 1014.19
1018.19 1016.76 1015.41 1014.25 1013.36 1012.75 1012.39 1012.21 1012.08 1011.86 1011.43 1010.72 1009.69 1008.37 1006.84 1005.21 1003.64 1002.24 1001.11 1000.30 999.83 999.67 999.76 1000.03 1000.41 1000.85 1001.32 1001.82 1002.37 1002.98 1003.68 1004.47 1005.35 1006.28 1007.23 1008.18 1009.07 1009.91 1010.67 1011.38 1012.04 1012.69 1013.35 1014.02
1019.38 1017.84 1016.36 1015.03 1013.94 1013.11 1012.51 1012.08 1011.72 1011.30 1010.74 1009.96 1008.93 1007.69 1006.29 1004.85 1003.48 1002.27 1001.30 1000.60 1000.19 1000.03 1000.06 1000.23 1000.50 1000.81 1001.18 1001.59 1002.07 1002.64 1003.33 1004.12 1005.01 1005.96 1006.93 1007.89 1008.80 1009.65 1010.43 1011.15 1011.84 1012.51 1013.18 1013.88
1020.37 1018.79 1017.23 1015.79 1014.53 1013.48 1012.63 1011.93 1011.31 1010.67 1009.94 1009.08 1008.07 1006.94 1005.74 1004.56 1003.46 1002.52 1001.78 1001.25 1000.93 1000.78 1000.75 1000.81 1000.92 1001.07 1001.27 1001.54 1001.91 1002.40 1003.04 1003.81 1004.70 1005.65 1006.64 1007.61 1008.54 1009.40 1010.20 1010.94 1011.64 1012.33 1013.02 1013.73
1021.05 1019.51 1017.95 1016.46 1015.08 1013.85 1012.77 1011.80 1010.91 1010.03 1009.13 1008.19 1007.21 1006.21 1005.23 1004.34 1003.57 1002.94 1002.48 1002.17 1001.97 1001.84 1001.76 1001.69 1001.62 1001.58 1001.59 1001.68 1001.91 1002.29 1002.86 1003.59 1004.45 1005.40 1006.39 1007.37 1008.30 1009.17 1009.98 1010.72 1011.43 1012.13 1012.83 1013.55
1021.42 1019.99 1018.51 1017.04 1015.61 1014.25 1012.97 1011.77 1010.62 1009.52 1008.45 1007.43 1006.46 1005.59 1004.84 1004.24 1003.80 1003.50 1003.33 1003.24 1003.17 1003.09 1002.96 1002.78 1002.54 1002.31 1002.12 1002.03 1002.10 1002.36 1002.84 1003.50 1004.32 1005.25 1006.22 1007.19 1008.12 1008.98 1009.77 1010.51 1011.22 1011.92 1012.62 1013.34
1021.54 1020.29 1018.96 1017.57 1016.16 1014.74 1013.33 1011.94 1010.58 1009.27 1008.04 1006.93 1005.98 1005.21 1004.65 1004.32 1004.17 1004.18 1004.27 1004.39 1004.46 1004.43 1004.27 1003.99 1003.61 1003.20 1002.83 1002.58 1002.50 1002.64 1003.02 1003.61 1004.38 1005.26 1006.19 1007.13 1008.03 1008.87 1009.64 1010.36 1011.05 1011.73 1012.43 1013.14
1021.53 1020.50 1019.36 1018.12 1016.79 1015.38 1013.90 1012.38 1010.86 1009.39 1008.03 1006.85 1005.88 1005.19 1004.77 1004.64 1004.73 1004.97 1005.28 1005.57 1005.75 1005.77 1005.60 1005.24 1004.76 1004.22 1003.72 1003.33 1003.13 1003.16 1003.44 1003.96 1004.65 1005.47 1006.35 1007.24 1008.09 1008.88 1009.61 1010.30 1010.96 1011.62 1012.31 1013.02
1021.55 1020.74 1019.81 1018.74 1017.53 1016.18 1014.70 1013.12 1011.51 1009.93 1008.48 1007.23 1006.25 1005.58 1005.26 1005.25 1005.49 1005.90 1006.35 1006.76 1007.02 1007.07 1006.89 1006.50 1005.95 1005.33 1004.73 1004.25 1003.96 1003.90 1004.11 1004.54 1005.16 1005.91 1006.72 1007.53 1008.32 1009.06 1009.74 1010.39 1011.02 1011.66 1012.33 1013.03
1021.69 1021.07 1020.34 1019.44 1018.37 1017.12 1015.69 1014.12 1012.49 1010.87 1009.36 1008.07 1007.07 1006.41 1006.12 1006.17 1006.48 1006.95 1007.48 1007.94 1008.23 1008.31 1008.12 1007.71 1007.13 1006.47 1005.83 1005.30 1004.96 1004.84 1004.98 1005.35 1005.89 1006.55 1007.28 1008.03 1008.74 1009.42 1010.05 1010.66 1011.26 1011.89 1012.54 1013.24
1022.01 1021.53 1020.94 1020.20 1019.26 1018.12 1016.79 1015.29 1013.69 1012.09 1010.58 1009.28 1008.27 1007.61 1007.30 1007.35 1007.65 1008.12 1008.64 1009.10 1009.39 1009.46 1009.27 1008.86 1008.28 1007.62 1006.98 1006.44 1006.07 1005.93 1006.02 1006.32 1006.79 1007.38 1008.03 1008.69 1009.34 1009.96 1010.56 1011.14 1011.72 1012.33 1012.98 1013.68
1022.50 1022.09 1021.58 1020.93 1020.11 1019.08 1017.86 1016.47 1014.96 1013.44 1011.99 1010.73 1009.73 1009.05 1008.72 1008.71 1008.96 1009.37 1009.82 1010.22 1010.47 1010.51 1010.32 1009.92 1009.37 1008.74 1008.13 1007.61 1007.25 1007.09 1007.15 1007.40 1007.81 1008.33 1008.90 1009.50 1010.10 1010.68 1011.24 1011.81 1012.39 1013.01 1013.66 1014.36
1023.09 1022.66 1022.16 1021.55 1020.80 1019.89 1018.79 1017.53 1016.16 1014.76 1013.42 1012.23 1011.26 1010.59 1010.22 1010.15 1010.30 1010.61 1010.97 1011.28 1011.47 1011.48 1011.28 1010.90 1010.39 1009.81 1009.25 1008.77 1008.44 1008.29 1008.33 1008.54 1008.89 1009.35 1009.87 1010.42 1010.97 1011.53 1012.09 1012.66 1013.25 1013.88 1014.55 1015.25
1023.64 1023.14 1022.60 1021.99 1021.29 1020.45 1019.48 1018.37 1017.16 1015.91 1014.71 1013.62 1012.72 1012.07 1011.67 1011.53 1011.59 1011.79 1012.04 1012.26 1012.38 1012.35 1012.15 1011.80 1011.34 1010.83 1010.33 1009.92 1009.62 1009.49 1009.52 1009.70 1010.01 1010.42 1010.89 1011.41 1011.94 1012.49 1013.05 1013.64 1014.26 1014.91 1015.59 1016.29
1024.06 1023.45 1022.84 1022.21 1021.53 1020.77 1019.91 1018.95 1017.91 1016.83 1015.78 1014.82 1014.00 1013.38 1012.97 1012.77 1012.75 1012.85 1013.00 1013.14 1013.20 1013.15 1012.96 1012.65 1012.25 1011.82 1011.40 1011.04 1010.79 1010.68 1010.71 1010.88 1011.16 1011.53 1011.97 1012.46 1012.98 1013.54 1014.12 1014.73 1015.37 1016.04 1016.73 1017.43
1024.25 1023.55 1022.88 1022.23 1021.57 1020.88 1020.13 1019.31 1018.43 1017.52 1016.62 1015.78 1015.05 1014.47 1014.06 1013.82 1013.74 1013.76 1013.84 1013.92 1013.94 1013.89 1013.73 1013.48 1013.15 1012.80 1012.46 1012.17 1011.98 1011.89 1011.93 1012.08 1012.34 1012.69 1013.11 1013.58 1014.10 1014.66 1015.26 1015.89 1016.54 1017.22 1017.91 1018.60
1024.19 1023.44 1022.75 1022.10 1021.48 1020.87 1020.22 1019.54 1018.80 1018.04 1017.27 1016.53 1015.88 1015.34 1014.93 1014.68 1014.55 1014.53 1014.56 1014.61 1014.64 1014.60 1014.50 1014.32 1014.08 1013.82 1013.56 1013.34 1013.20 1013.14 1013.19 1013.34 1013.59 1013.92 1014.32 1014.78 1015.29 1015.85 1016.45 1017.09 1017.74 1018.41 1019.08 1019.74
1023.90 1023.18 1022.52 1021.93 1021.38 1020.85 1020.31 1019.74 1019.13 1018.47 1017.80 1017.15 1016.55 1016.03 1015.64 1015.37 1015.22 1015.18 1015.20 1015.26 1015.31 1015.32 1015.29 1015.19 1015.05 1014.88 1014.71 1014.57 1014.47 1014.45 1014.51 1014.66 1014.89 1015.21 1015.60 1016.04 1016.55 1017.10 1017.69 1018.30 1018.94 1019.58 1020.21 1020.81
1023.47 1022.84 1022.28 1021.79 1021.35 1020.93 1020.50 1020.03 1019.50 1018.93 1018.32 1017.71 1017.13 1016.63 1016.23 1015.95 1015.80 1015.76 1015.79 1015.88 1015.98 1016.07 1016.12 1016.12 1016.08 1016.00 1015.91 1015.83 1015.78 1015.79 1015.87 1016.02 1016.25 1016.55 1016.92 1017.35 1017.84 1018.36 1018.93 1019.51 1020.10 1020.69 1021.26 1021.79
1023.00 1022.52 1022.12 1021.78 1021.49 1021.19 1020.86 1020.48 1020.01 1019.48 1018.89 1018.29 1017.71 1017.20 1016.79 1016.50 1016.35 1016.32 1016.39 1016.53 1016.70 1016.86 1017.00 1017.09 1017.14 1017.14 1017.12 1017.10 1017.09 1017.13 1017.22 1017.38 1017.60 1017.90 1018.26 1018.67 1019.13 1019.62 1020.14 1020.67 1021.20 1021.72 1022.21 1022.67
Thickness
5492 5493 5497 5507 5517 5525 5528 5531 5535 5544 5554 5559 5563 5570 5580 5587 5593 5600 5606 5612 5617 5622 5625 5629 5632 5634 5637 5638 5639 5640 5640 5639 5640 5640 5639 5637 5636 5635 5635 5635 5635 5635 5634 5634
5483 5487 5498 5506 5512 5515 5519 5520 5525 5534 5545 5551 5552 5557 5568 5575 5583 5591 5597 5602 5607 5611 5615 5618 5621 5624 5626 5629 5630 5630 5630 5631 5632 5632 5631 5630 5629 5627 5627 5627 5626 5626 5626 5625
5478 5487 5497 5500 5502 5506 5510 5515 5519 5525 5533 5539 5542 5546 5556 5566 5573 5579 5585 5590 5595 5600 5604 5608 5611 5613 5616 5618 5620 5622 5622 5622 5623 5623 5622 5620 5618 5617 5616 5617 5617 5617 5617 5616
5472 5483 5490 5492 5495 5502 5503 5513 5518 5521 5521 5519 5530 5527 5544 5554 5561 5568 5573 5578 5583 5588 5593 5598 5601 5603 5606 5608 5610 5612 5613 5613 5613 5614 5614 5614 5612 5610 5609 5608 5608 5607 5607 5607
5466 5475 5481 5485 5492 5497 5501 5510 5512 5513 5509 5508 5516 5516 5530 5541 5550 5560 5565 5569 5573 5578 5583 5587 5590 5593 5596 5598 5600 5602 5603 5604 5604 5605 5605 5605 5603 5602 5600 5599 5598 5597 5597 5597
5463 5470 5475 5480 5487 5494 5497 5498 5499 5498 5499 5499 5508 5509 5518 5530 5547 5555 5558 5561 5564 5568 5571 5575 5578 5582 5584 5587 5589 5591 5593 5594 5594 5594 5595 5595 5594 5592 5590 5589 5588 5587 5586 5586
5454 5462 5469 5475 5479 5485 5488 5485 5482 5483 5484 5492 5502 5504 5514 5531 5537 5545 5551 5551 5552 5556 5559 5563 5566 5570 5573 5576 5578 5581 5583 5583 5583 5584 5585 5585 5585 5584 5582 5580 5579 5578 5577 5576
5443 5449 5460 5468 5472 5474 5478 5481 5480 5479 5479 5481 5492 5497 5508 5517 5524 5531 5537 5540 5541 5544 5547 5551 5556 5559 5563 5565 5567 5570 5572 5573 5573 5574 5574 5575 5574 5573 5572 5571 5570 5569 5568 5568
5437 5446 5458 5466 5470 5473 5471 5470 5477 5469 5463 5470 5480 5486 5499 5510 5515 5519 5522 5525 5528 5532 5536 5540 5545 5548 5552 5555 5557 5560 5562 5563 5563 5563 5563 5564 5564 5563 5562 5560 5560 5559 5558 5558
5434 5438 5449 5457 5466 5465 5468 5467 5464 5465 5465 5469 5476 5481 5494 5500 5504 5508 5510 5512 5516 5520 5524 5529 5534 5538 5541 5544 5546 5548 5551 5552 5553 5553 5553 5553 5553 5553 5551 5550 5549 5548 5548 5548
5429 5429 5437 5446 5450 5454 5458 5460 5460 5457 5462 5461 5467 5484 5492 5495 5498 5498 5499 5500 5503 5507 5512 5517 5522 5527 5530 5533 5535 5537 5539 5540 5541 5542 5542 5542 5542 5541 5540 5539 5538 5538 5537 5537
5422 5421 5424 5436 5446 5452 5453 5455 5455 5459 5449 5447 5456 5474 5481 5482 5485 5486 5487 5490 5492 5495 5500 5505 5510 5514 5517 5521 5524 5525 5527 5528 5530 5530 5531 5530 5530 5529 5529 5528 5527 5527 5527 5526
5420 5416 5421 5432 5437 5439 5442 5444 5445 5446 5439 5439 5452 5469 5470 5470 5474 5476 5477 5478 5481 5484 5488 5492 5496 5501 5504 5508 5511 5513 5515 5516 5517 5518 5518 5518 5518 5517 5517 5517 5517 5516 5516 5515
5416 5406 5415 5426 5432 5431 5431 5435 5437 5439 5439 5438 5449 5459 5461 5461 5462 5464 5466 5466 5468 5472 5476 5479 5483 5487 5491 5495 5498 5501 5503 5504 5506 5506 5506 5506 5506 5506 5506 5506 5505 5505 5505 5504
5404 5400 5403 5411 5421 5423 5426 5430 5433 5434 5437 5442 5449 5449 5455 5452 5452 5453 5454 5456 5459 5462 5466 5469 5471 5474 5478 5482 5485 5488 5490 5492 5493 5494 5494 5494 5493 5493 5493 5493 5493 5493 5493 5493
5390 5394 5399 5407 5417 5418 5420 5423 5428 5429 5430 5431 5435 5440 5444 5441 5441 5442 5444 5446 5448 5450 5454 5457 5460 5463 5466 5469 5472 5475 5477 5479 5481 5481 5481 5481 5481 5481 5481 5481 5481 5480 5480 5480
5382 5386 5391 5397 5402 5413 5409 5411 5416 5419 5419 5425 5430 5434 5432 5431 5434 5434 5435 5436 5438 5440 5443 5446 5449 5452 5455 5458 5461 5463 5465 5467 5468 5468 5469 5469 5469 5468 5468 5468 5468 5468 5467 5467
5377 5377 5375 5382 5392 5397 5406 5402 5405 5409 5411 5413 5419 5420 5422 5422 5422 5423 5424 5425 5427 5430 5432 5435 5438 5442 5444 5447 5449 5452 5453 5455 5455 5456 5456 5456 5456 5456 5455 5455 5455 5454 5454 5454
5374 5373 5367 5369 5372 5383 5394 5394 5391 5396 5402 5405 5407 5410 5410 5411 5411 5412 5415 5416 5417 5419 5422 5425 5428 5431 5434 5436 5438 5440 5441 5442 5442 5443 5443 5444 5444 5444 5443 5443 5443 5443 5442 5442
5365 5362 5358 5356 5367 5379 5390 5385 5383 5388 5395 5397 5397 5400 5402 5404 5403 5407 5408 5407 5408 5410 5413 5415 5418 5421 5422 5424 5426 5428 5429 5429 5430 5430 5431 5431 5432 5432 5432 5432 5431 5430 5430 5430
5353 5347 5345 5346 5349 5365 5371 5372 5378 5384 5391 5389 5388 5390 5392 5392 5397 5398 5397 5397 5399 5401 5403 5406 5408 5409 5411 5413 5415 5415 5416 5416 5417 5418 5419 5419 5419 5419 5420 5419 5419 5418 5418 5417
5340 5341 5337 5337 5346 5362 5363 5365 5369 5374 5376 5379 5381 5381 5382 5383 5385 5386 5386 5387 5388 5390 5393 5395 5397 5398 5400 5402 5403 5403 5403 5404 5405 5406 5406 5406 5406 5407 5407 5406 5406 5405 5405 5404
5331 5335 5334 5338 5351 5354 5353 5358 5361 5363 5366 5369 5371 5372 5372 5374 5375 5376 5376 5377 5378 5380 5382 5384 5386 5387 5388 5389 5391 5391 5392 5393 5393 5393 5393 5392 5393 5393 5393 5393 5392 5392 5392 5392
5327 5328 5329 5331 5342 5346 5348 5349 5353 5356 5358 5361 5363 5364 5364 5364 5365 5366 5367 5367 5368 5370 5372 5374 5375 5376 5377 5378 5379 5380 5381 5381 5381 5381 5380 5380 5380 5380 5380 5380 5381 5380 5380 5380
5327 5322 5323 5327 5336 5340 5347 5346 5348 5350 5352 5353 5356 5356 5356 5356 5357 5357 5357 5358 5359 5361 5361 5362 5364 5365 5366 5367 5368 5369 5369 5369 5369 5369 5368 5368 5368 5368 5368 5369 5369 5369 5369 5370
5324 5323 5323 5335 5338 5335 5340 5342 5342 5343 5345 5346 5347 5348 5348 5348 5347 5348 5347 5348 5348 5349 5351 5352 5354 5355 5356 5356 5357 5357 5358 5358 5358 5358 5358 5357 5357 5357 5357 5358 5358 5358 5360 5361